Find Starlink 32540

NORAD ID: 61723 Int'l Des: 2024-196 Owner: SPXS Country: US Constellation: starlink operational
LEOCIRCULAR

現在のビュー

3D地球を読み込み中...

About Starlink 32540

Starlink 32540 (NORAD 61723) is a starlink constellation satellite (v2 mini) launched Oct 30, 2024 by SPXS of US. It operates in LEO, CIRCULAR orbit with a mass of 730.00 kg.

次回通過

Passes for default location (London). Set your location on the main map for personalized predictions.

高度履歴

Loading altitude history...

軌道要素

1 61723U 24196S 26234.69513685 .00002000 00000-0 70302-4 0 9999
2 61723 53.1618 12.0178 0001046 71.4741 288.6375 15.34398795103107
Epoch: Aug 22, 2026 • Age: 37 hours

現在のステータス

高度 464.1 km
遠地点 / 近地点 N/A
速度 7.64 km/s
衛星直下点 -2.46°S, 132.7°E
打ち上げ日 Oct 30, 2024
運用期間 1.8 years
タイプ internet

技術仕様

分類 Payload
質量 730.00 kg
乾燥質量 700.00 kg
総質量 730.00 kg
長さ 0.30 m
直径 4.10 m
スパン 29.00 m
形状 Box + pan
製造者 SPXS
バスタイプ Starlink V2M
フェーズステータス In Orbit
所有者/国 SPXS/US

Most Searched